Time,TemperatureF,DewpointF,PressureIn,WindDirection,WindDirectionDegrees,WindSpeedMPH,WindSpeedGustMPH,Humidity,HourlyPrecipIn,Conditions,Clouds,dailyrainin,SoftwareType,DateUTC
2013-08-09 01:02:00,68.0,68.0,29.96,NE,45,0.0,0.0,100,0.00,,,0.00,,2013-08-09 05:02:00,
2013-08-09 01:32:00,68.0,68.0,29.95,NNE,22,0.0,0.0,100,0.00,,,0.00,,2013-08-09 05:32:00,
2013-08-09 01:43:00,68.0,68.0,29.96,NNE,22,0.0,0.0,100,0.00,,,0.00,,2013-08-09 05:43:00,
2013-08-09 01:52:00,68.0,68.0,29.97,North,360,0.0,0.0,100,0.00,,,0.00,,2013-08-09 05:52:00,
2013-08-09 02:01:00,68.0,68.0,29.96,NE,45,0.0,0.0,100,0.00,,,0.00,,2013-08-09 06:01:00,
2013-08-09 02:32:00,67.0,67.0,29.96,NE,45,0.0,3.0,100,0.00,,,0.00,,2013-08-09 06:32:00,
2013-08-09 02:43:00,67.0,67.0,29.97,NNE,22,1.0,0.0,100,0.00,,,0.00,,2013-08-09 06:43:00,
2013-08-09 02:52:00,67.0,67.0,29.96,NE,45,0.0,2.0,100,0.00,,,0.00,,2013-08-09 06:52:00,
2013-08-09 03:01:00,67.0,67.0,29.95,NNE,22,0.0,2.0,100,0.00,,,0.00,,2013-08-09 07:01:00,
2013-08-09 03:12:00,66.0,66.0,29.95,NE,45,1.0,5.0,100,0.00,,,0.00,,2013-08-09 07:12:00,
2013-08-09 03:33:00,66.0,66.0,29.94,NE,45,0.0,0.0,100,0.00,,,0.00,,2013-08-09 07:33:00,
2013-08-09 03:43:00,66.0,66.0,29.95,NNE,22,0.0,4.0,100,0.00,,,0.00,,2013-08-09 07:43:00,
2013-08-09 03:53:00,66.0,66.0,29.96,NE,45,0.0,0.0,100,0.00,,,0.00,,2013-08-09 07:53:00,
2013-08-09 04:02:00,65.0,65.0,29.96,NE,45,0.0,0.0,100,0.00,,,0.00,,2013-08-09 08:02:00,
2013-08-09 04:32:00,65.0,65.0,29.97,NE,45,0.0,0.0,100,0.00,,,0.00,,2013-08-09 08:32:00,
2013-08-09 04:43:00,64.0,64.0,29.98,NE,45,0.0,0.0,100,0.00,,,0.00,,2013-08-09 08:43:00,
2013-08-09 04:53:00,64.0,64.0,29.97,NE,45,0.0,0.0,100,0.00,,,0.00,,2013-08-09 08:53:00,
2013-08-09 05:02:00,64.0,64.0,29.97,NE,45,0.0,0.0,100,0.00,,,0.00,,2013-08-09 09:02:00,
2013-08-09 05:22:00,64.0,64.0,29.98,NE,45,0.0,0.0,100,0.00,,,0.00,,2013-08-09 09:22:00,
2013-08-09 05:43:00,64.0,64.0,29.98,NE,45,0.0,0.0,100,0.00,,,0.00,,2013-08-09 09:43:00,
2013-08-09 05:52:00,64.0,64.0,29.98,NE,45,0.0,0.0,100,0.00,,,0.00,,2013-08-09 09:52:00,
2013-08-09 06:01:00,64.0,64.0,29.98,NE,45,0.0,0.0,100,0.00,,,0.00,,2013-08-09 10:01:00,
2013-08-09 06:22:00,63.0,63.0,29.98,NE,45,0.0,0.0,100,0.00,,,0.00,,2013-08-09 10:22:00,
2013-08-09 06:32:00,63.0,63.0,29.98,NNE,22,0.0,0.0,100,0.00,,,0.00,,2013-08-09 10:32:00,
2013-08-09 06:43:00,63.0,63.0,29.98,NNE,22,0.0,0.0,100,0.00,,,0.00,,2013-08-09 10:43:00,
2013-08-09 07:53:00,63.0,63.0,30.00,NNE,22,0.0,0.0,100,0.00,,,0.00,,2013-08-09 11:53:00,
2013-08-09 08:02:00,63.0,63.0,29.98,NNE,22,0.0,0.0,100,0.00,,,0.00,,2013-08-09 12:02:00,
2013-08-09 08:43:00,66.0,66.0,29.98,NNE,22,0.0,0.0,100,0.00,,,0.00,,2013-08-09 12:43:00,
2013-08-09 09:32:00,68.0,67.0,29.98,NNE,22,0.0,0.0,96,0.00,,,0.00,,2013-08-09 13:32:00,
2013-08-09 09:43:00,69.0,68.0,29.97,NNE,22,0.0,0.0,96,0.00,,,0.00,,2013-08-09 13:43:00,
2013-08-09 09:52:00,69.0,68.0,29.97,NNE,22,0.0,0.0,96,0.00,,,0.00,,2013-08-09 13:52:00,
2013-08-09 10:02:00,69.0,65.0,29.97,NE,45,0.0,0.0,87,0.00,,,0.00,,2013-08-09 14:02:00,
2013-08-09 10:33:00,72.0,64.0,29.95,NE,45,0.0,0.0,75,0.00,,,0.00,,2013-08-09 14:33:00,
2013-08-09 10:43:00,73.0,61.0,29.95,NE,45,0.0,0.0,67,0.00,,,0.00,,2013-08-09 14:43:00,
2013-08-09 10:53:00,74.0,62.0,29.96,NNE,22,0.0,0.0,67,0.00,,,0.00,,2013-08-09 14:53:00,
2013-08-09 11:02:00,76.0,63.0,29.95,NE,45,0.0,0.0,65,0.00,,,0.00,,2013-08-09 15:02:00,
2013-08-09 11:33:00,77.0,62.0,29.93,East,90,0.0,0.0,60,0.00,,,0.00,,2013-08-09 15:33:00,
2013-08-09 12:01:00,77.0,64.0,29.92,East,90,0.0,0.0,65,0.00,,,0.00,,2013-08-09 16:01:00,
2013-08-09 12:11:00,77.0,64.0,29.92,East,90,0.0,0.0,65,0.00,,,0.00,,2013-08-09 16:11:00,
2013-08-09 12:32:00,79.0,65.0,29.93,NW,315,0.0,0.0,62,0.00,,,0.00,,2013-08-09 16:32:00,
2013-08-09 13:02:00,80.0,63.0,29.91,WNW,292,0.0,0.0,57,0.00,,,0.00,,2013-08-09 17:02:00,
2013-08-09 13:11:00,81.0,64.0,29.91,WSW,247,0.0,0.0,57,0.00,,,0.00,,2013-08-09 17:11:00,
2013-08-09 13:22:00,81.0,64.0,29.91,West,270,0.0,0.0,57,0.00,,,0.00,,2013-08-09 17:22:00,
2013-08-09 13:33:00,81.0,64.0,29.91,NNW,337,0.0,0.0,57,0.00,,,0.00,,2013-08-09 17:33:00,
2013-08-09 13:52:00,82.0,65.0,29.91,NNW,337,0.0,0.0,56,0.00,,,0.00,,2013-08-09 17:52:00,
2013-08-09 14:01:00,82.0,62.0,29.91,North,360,0.0,0.0,51,0.00,,,0.00,,2013-08-09 18:01:00,
2013-08-09 14:53:00,82.0,64.0,29.91,NNW,337,0.0,0.0,54,0.00,,,0.00,,2013-08-09 18:53:00,
2013-08-09 15:02:00,82.0,64.0,29.92,SW,225,0.0,0.0,54,0.00,,,0.00,,2013-08-09 19:02:00,
2013-08-09 15:43:00,83.0,64.0,29.91,NW,315,0.0,0.0,53,0.00,,,0.00,,2013-08-09 19:43:00,
2013-08-09 15:52:00,83.0,63.0,29.91,NW,315,0.0,0.0,51,0.00,,,0.00,,2013-08-09 19:52:00,
2013-08-09 16:43:00,84.0,64.0,29.89,West,270,0.0,0.0,51,0.00,,,0.00,,2013-08-09 20:43:00,
2013-08-09 17:43:00,83.0,65.0,29.90,North,360,0.0,0.0,55,0.00,,,0.00,,2013-08-09 21:43:00,
2013-08-09 18:01:00,82.0,65.0,29.90,WNW,292,0.0,0.0,56,0.00,,,0.00,,2013-08-09 22:01:00,
2013-08-09 18:42:00,79.0,64.0,29.92,West,270,1.0,0.0,61,0.00,,,0.00,,2013-08-09 22:42:00,
2013-08-09 18:52:00,79.0,65.0,29.92,West,270,0.0,3.0,62,0.00,,,0.00,,2013-08-09 22:52:00,
2013-08-09 19:52:00,78.0,64.0,29.94,WSW,247,0.0,1.0,62,0.00,,,0.00,,2013-08-09 23:52:00,
2013-08-09 20:01:00,77.0,64.0,29.94,WNW,292,0.0,0.0,65,0.00,,,0.00,,2013-08-10 00:01:00,
2013-08-09 20:33:00,75.0,65.0,29.97,WNW,292,0.0,0.0,70,0.00,,,0.00,,2013-08-10 00:33:00,
2013-08-09 20:43:00,75.0,65.0,29.97,WNW,292,0.0,0.0,70,0.00,,,0.00,,2013-08-10 00:43:00,
2013-08-09 20:52:00,74.0,65.0,29.97,WNW,292,0.0,0.0,73,0.00,,,0.00,,2013-08-10 00:52:00,
2013-08-09 21:01:00,74.0,65.0,29.97,WNW,292,0.0,0.0,74,0.00,,,0.00,,2013-08-10 01:01:00,
2013-08-09 21:11:00,73.0,66.0,29.97,WNW,292,0.0,0.0,78,0.00,,,0.00,,2013-08-10 01:11:00,
2013-08-09 21:22:00,73.0,66.0,29.97,WNW,292,0.0,0.0,78,0.00,,,0.00,,2013-08-10 01:22:00,
2013-08-09 21:32:00,73.0,66.0,29.98,WNW,292,0.0,0.0,79,0.00,,,0.00,,2013-08-10 01:32:00,
2013-08-09 21:42:00,73.0,66.0,29.98,WNW,292,0.0,0.0,79,0.00,,,0.00,,2013-08-10 01:42:00,
2013-08-09 21:52:00,71.0,67.0,30.01,SW,225,0.0,0.0,86,0.00,,,0.00,,2013-08-10 01:52:00,
2013-08-09 22:03:00,71.0,67.0,30.01,SW,225,0.0,0.0,86,0.00,,,0.00,,2013-08-10 02:03:00,
2013-08-09 22:11:00,71.0,68.0,30.01,SW,225,0.0,0.0,89,0.00,,,0.00,,2013-08-10 02:11:00,
2013-08-09 22:21:00,71.0,68.0,30.01,SW,225,0.0,0.0,89,0.00,,,0.00,,2013-08-10 02:21:00,
2013-08-09 22:32:00,71.0,68.0,30.01,SW,225,0.0,0.0,89,0.00,,,0.00,,2013-08-10 02:32:00,
2013-08-09 22:42:00,71.0,68.0,30.00,SW,225,0.0,0.0,89,0.00,,,0.00,,2013-08-10 02:42:00,
2013-08-09 22:52:00,71.0,68.0,30.00,WSW,247,0.0,0.0,89,0.00,,,0.00,,2013-08-10 02:52:00,
2013-08-09 23:01:00,69.0,67.0,30.02,WSW,247,0.0,0.0,94,0.00,,,0.00,,2013-08-10 03:01:00,
2013-08-09 23:11:00,68.0,67.0,30.01,WSW,247,0.0,0.0,95,0.00,,,0.00,,2013-08-10 03:11:00,
2013-08-09 23:22:00,68.0,67.0,30.01,WSW,247,0.0,0.0,97,0.00,,,0.00,,2013-08-10 03:22:00,
2013-08-09 23:32:00,68.0,67.0,30.03,WSW,247,0.0,0.0,98,0.00,,,0.00,,2013-08-10 03:32:00,
2013-08-09 23:42:00,68.0,67.0,30.03,WSW,247,0.0,0.0,97,0.00,,,0.00,,2013-08-10 03:42:00,
2013-08-09 23:52:00,68.0,67.0,30.02,WSW,247,0.0,0.0,96,0.00,,,0.00,,2013-08-10 03:52:00,